When you browse on this site, cookies collect data to enhance your experience and personalize the content and advertising you see.
Visit our Privacy Policy to learn more. By continuing to use the site, you agree to this use of cookies and data.
  • In Romania
  • List of Countries
  • For 7 days
  • Water Temperature
  • Weather Map
  • Weather Widgets
  • user-avatar
    Login

    Hourly Weather San Luis

    Today, 27 May, Wednesday

    Time Temperature Precipitation Wind Pressure Humidity
    00:00 +14°C° 0 mm 4 mps 696 mmHg 35%
    01:00 +13°C° 0 mm 4 mps 695 mmHg 36%
    02:00 +13°C° 0 mm 3 mps 695 mmHg 40%
    03:00 +12°C° 0 mm 3 mps 695 mmHg 44%
    04:00 +12°C° 0 mm 3 mps 695 mmHg 48%
    05:00 +12°C° 0 mm 2 mps 694 mmHg 53%
    06:00 +13°C° 0 mm 2 mps 695 mmHg 50%
    07:00 +13°C° 0 mm 2 mps 696 mmHg 47%
    08:00 +14°C° 0 mm 2 mps 696 mmHg 45%
    09:00 +16°C° 0 mm 2 mps 697 mmHg 39%
    10:00 +19°C° 0 mm 2 mps 697 mmHg 33%
    11:00 +21°C° 0 mm 2 mps 698 mmHg 28%
    12:00 +23°C° 0 mm 2 mps 698 mmHg 27%
    13:00 +22°C° 0 mm 3 mps 698 mmHg 27%
    14:00 +24°C° 0 mm 3 mps 697 mmHg 26%
    15:00 +22°C° 0 mm 3 mps 697 mmHg 30%
    16:00 +20°C° 0 mm 3 mps 697 mmHg 33%
    17:00 +19°C° 0 mm 4 mps 697 mmHg 36%
    18:00 +17°C° 0 mm 3 mps 697 mmHg 39%
    19:00 +16°C° 0 mm 3 mps 697 mmHg 43%
    20:00 +13°C° 0 mm 3 mps 697 mmHg 46%
    21:00 +14°C° 0 mm 2 mps 697 mmHg 48%
    22:00 +13°C° 0 mm 2 mps 697 mmHg 50%
    23:00 +13°C° 0 mm 2 mps 697 mmHg 53%

    Tomorrow, 28 May, Thursday

    Time Temperature Precipitation Wind Pressure Humidity
    00:00 +12°C° 0 mm 1 mps 697 mmHg 56%
    01:00 +11°C° 0 mm 1 mps 697 mmHg 59%
    02:00 +11°C° 0 mm 1 mps 696 mmHg 62%
    03:00 +10°C° 0 mm 1 mps 696 mmHg 64%
    04:00 +10°C° 0 mm 1 mps 696 mmHg 67%
    05:00 +10°C° 0 mm 1 mps 695 mmHg 70%
    06:00 +10°C° 0 mm 1 mps 696 mmHg 68%
    07:00 +10°C° 0 mm 1 mps 696 mmHg 66%
    08:00 +11°C° 0 mm 1 mps 696 mmHg 64%
    09:00 +13°C° 0 mm 1 mps 697 mmHg 56%
    10:00 +16°C° 0 mm 1 mps 697 mmHg 48%
    11:00 +19°C° 0 mm 2 mps 697 mmHg 40%
    12:00 +19°C° 0 mm 2 mps 697 mmHg 38%
    13:00 +20°C° 0 mm 2 mps 696 mmHg 37%
    14:00 +21°C° 0 mm 2 mps 696 mmHg 35%
    15:00 +21°C° 0 mm 1 mps 695 mmHg 38%
    16:00 +20°C° 0 mm 1 mps 695 mmHg 42%
    17:00 +19°C° 0 mm 1 mps 695 mmHg 45%
    18:00 +16°C° 0 mm 1 mps 695 mmHg 52%
    19:00 +14°C° 0 mm 1 mps 694 mmHg 58%
    20:00 +12°C° 0 mm 1 mps 694 mmHg 64%
    21:00 +12°C° 0 mm 1 mps 694 mmHg 66%
    22:00 +11°C° 0 mm 1 mps 694 mmHg 68%
    23:00 +11°C° 0 mm 1 mps 695 mmHg 70%

    Day after tomorrow, 29 May, Friday

    Time Temperature Precipitation Wind Pressure Humidity
    00:00 +11°C° 0 mm 1 mps 694 mmHg 71%
    01:00 +10°C° 0 mm 1 mps 694 mmHg 71%
    02:00 +10°C° 0 mm 1 mps 694 mmHg 72%
    03:00 +10°C° 0 mm 1 mps 694 mmHg 73%
    04:00 +10°C° 0 mm 1 mps 694 mmHg 75%
    05:00 +10°C° 0 mm 1 mps 694 mmHg 76%
    06:00 +10°C° 0 mm 1 mps 695 mmHg 75%
    07:00 +10°C° 0 mm 1 mps 695 mmHg 74%
    08:00 +10°C° 0 mm 1 mps 695 mmHg 74%
    09:00 +13°C° 0 mm 1 mps 696 mmHg 66%
    10:00 +15°C° 0 mm 2 mps 696 mmHg 58%
    11:00 +17°C° 0 mm 2 mps 697 mmHg 50%
    12:00 +18°C° 0 mm 2 mps 696 mmHg 48%
    13:00 +18°C° 0 mm 3 mps 696 mmHg 46%
    14:00 +19°C° 0 mm 3 mps 695 mmHg 45%
    15:00 +18°C° 0 mm 4 mps 696 mmHg 52%
    16:00 +15°C° 0 mm 5 mps 696 mmHg 58%
    17:00 +14°C° 0 mm 6 mps 696 mmHg 65%
    18:00 +13°C° 0 mm 6 mps 696 mmHg 69%
    19:00 +11°C° 0 mm 6 mps 697 mmHg 74%
    20:00 +9°C° 0 mm 6 mps 698 mmHg 78%
    21:00 +9°C° 0 mm 6 mps 698 mmHg 80%
    22:00 +8°C° 0 mm 6 mps 698 mmHg 81%
    23:00 +8°C° 0 mm 6 mps 699 mmHg 82%

    30 May, Saturday

    Time Temperature Precipitation Wind Pressure Humidity
    00:00 +7°C° 0 mm 6 mps 699 mmHg 82%
    01:00 +7°C° 0 mm 6 mps 699 mmHg 82%
    02:00 +7°C° 0 mm 6 mps 699 mmHg 83%
    03:00 +5°C° 0 mm 6 mps 699 mmHg 83%
    04:00 +5°C° 0 mm 6 mps 700 mmHg 83%
    05:00 +5°C° 0 mm 6 mps 700 mmHg 83%
    06:00 +5°C° 0 mm 6 mps 700 mmHg 82%
    07:00 +4°C° 0 mm 6 mps 701 mmHg 80%
    08:00 +4°C° 0 mm 6 mps 702 mmHg 79%
    09:00 +4°C° 0 mm 6 mps 702 mmHg 78%
    10:00 +5°C° 0 mm 6 mps 702 mmHg 76%
    11:00 +5°C° 0 mm 6 mps 703 mmHg 75%
    12:00 +5°C° 0 mm 7 mps 702 mmHg 69%
    13:00 +6°C° 0 mm 7 mps 702 mmHg 64%
    14:00 +6°C° 0 mm 8 mps 702 mmHg 58%
    15:00 +6°C° 0 mm 7 mps 702 mmHg 62%
    16:00 +5°C° 0 mm 7 mps 702 mmHg 65%
    17:00 +5°C° 0 mm 6 mps 702 mmHg 69%
    18:00 +4°C° 0 mm 6 mps 702 mmHg 69%
    19:00 +5°C° 0 mm 5 mps 703 mmHg 69%
    20:00 +5°C° 0 mm 5 mps 703 mmHg 69%
    21:00 +4°C° 0 mm 4 mps 703 mmHg 76%
    22:00 +3°C° 0 mm 3 mps 703 mmHg 82%
    23:00 +3°C° 0 mm 1 mps 703 mmHg 88%

    31 May, Sunday

    Time Temperature Precipitation Wind Pressure Humidity
    00:00 +2°C° 0 mm 2 mps 703 mmHg 88%
    01:00 +2°C° 0 mm 2 mps 703 mmHg 88%
    02:00 +2°C° 0 mm 2 mps 703 mmHg 88%
    03:00 +1°C° 0 mm 2 mps 702 mmHg 87%
    04:00 +1°C° 0 mm 2 mps 702 mmHg 87%
    05:00 +2°C° 0 mm 1 mps 702 mmHg 86%
    06:00 +2°C° 0 mm 1 mps 702 mmHg 83%
    07:00 +3°C° 0 mm 1 mps 703 mmHg 80%
    08:00 +3°C° 0 mm 1 mps 703 mmHg 77%
    09:00 +4°C° 0 mm 2 mps 703 mmHg 67%
    10:00 +7°C° 0 mm 2 mps 704 mmHg 56%
    11:00 +9°C° 0 mm 2 mps 704 mmHg 46%
    12:00 +10°C° 0 mm 2 mps 703 mmHg 43%
    13:00 +12°C° 0 mm 2 mps 703 mmHg 40%
    14:00 +12°C° 0 mm 3 mps 702 mmHg 36%
    15:00 +12°C° 0 mm 2 mps 702 mmHg 39%
    16:00 +10°C° 0 mm 2 mps 702 mmHg 41%
    17:00 +10°C° 0 mm 2 mps 701 mmHg 43%
    18:00 +8°C° 0 mm 2 mps 701 mmHg 47%
    19:00 +7°C° 0 mm 2 mps 701 mmHg 52%
    20:00 +5°C° 0 mm 2 mps 702 mmHg 56%
    21:00 +5°C° 0 mm 2 mps 702 mmHg 58%
    22:00 +5°C° 0 mm 1 mps 702 mmHg 60%
    23:00 +5°C° 0 mm 1 mps 702 mmHg 62%

    1 June, Monday

    Time Temperature Precipitation Wind Pressure Humidity
    00:00 +4°C° 0 mm 1 mps 702 mmHg 65%
    01:00 +4°C° 0 mm 1 mps 701 mmHg 68%
    02:00 +2°C° 0 mm 0 mps 701 mmHg 71%
    03:00 +3°C° 0 mm 1 mps 701 mmHg 68%
    04:00 +4°C° 0 mm 1 mps 701 mmHg 66%
    05:00 +3°C° 0 mm 2 mps 701 mmHg 64%
    06:00 +4°C° 0 mm 2 mps 701 mmHg 59%
    07:00 +5°C° 0 mm 2 mps 702 mmHg 53%
    08:00 +4°C° 0 mm 3 mps 702 mmHg 48%
    09:00 +8°C° 0 mm 3 mps 703 mmHg 42%
    10:00 +11°C° 0 mm 4 mps 703 mmHg 35%
    11:00 +14°C° 0 mm 4 mps 703 mmHg 29%
    12:00 +15°C° 0 mm 4 mps 703 mmHg 27%
    13:00 +17°C° 0 mm 4 mps 702 mmHg 24%
    14:00 +18°C° 0 mm 4 mps 701 mmHg 22%
    15:00 +15°C° 0 mm 4 mps 701 mmHg 25%
    16:00 +14°C° 0 mm 3 mps 700 mmHg 28%
    17:00 +14°C° 0 mm 2 mps 700 mmHg 30%
    18:00 +12°C° 0 mm 2 mps 700 mmHg 33%
    19:00 +10°C° 0 mm 2 mps 699 mmHg 36%
    20:00 +8°C° 0 mm 2 mps 699 mmHg 39%
    21:00 +8°C° 0 mm 2 mps 699 mmHg 39%
    22:00 +8°C° 0 mm 2 mps 699 mmHg 40%
    23:00 +7°C° 0 mm 3 mps 698 mmHg 40%
    Show more